Location: Camaret
(48.2753°N, 4.5961°W)
Time: 00:12:19
(UTC+00:00)

SJ-11-01 - Pass Details

Date: 29 October 2020
Orbit: 685 x 700 km, 98.0° (Epoch: 26 November)

Event Time Altitude Azimuth Distance (km) Brightness Sun altitude
Exits shadow 19:14:30 19° 167° (SSE) 1,624 6.0 -22.3°
Maximum altitude 19:17:54 86° 256° (WSW) 695 4.2 -22.8°
Drops below altitude 10° 19:22:38 10° 346° (NNW) 2,149 7.0 -23.6°
Sets 19:24:53 0° 347° (NNW) 3,072 7.9 -24.0°
